SCP
0 0 0 0 0 0 0 0 0 0 0 0 0 0 0 1 1 1 1 2 3 2 2 1 1 1 1 1 1 1 1 0 1 1 1 3 2 2 2 2 2 1 1
0 0 0 0 0 0 0 0 0 0 0 0 0 0 0 0 0 0 1 2 2 2 2 1 1 1 0 0 1 1 2 1 0 3 1 3 1 1 0 0 1 0 0
0 0 0 0 0 0 0 0 0 0 0 0 0 1 1 2 2 1 1 1 1 2 1 1 0 0 1 0 1 1 1 1 1 3 3 3 1 1 0 0 0 0 0
0 0 0 0 0 0 0 0 0 0 0 0 0 1 1 1 0 1 1 1 1 1 0 0 0 0 0 1 1 2 2 2 1 3 3 2 3 2 0 0 0 0 0
0 0 0 0 0 0 0 0 0 1 1 0 0 0 0 1 1 0 1 1 1 1 1 1 0 0 -0 0 0 1 2 3 3 4 5 4 3 2 1 0 0 0 0
0 0 0 0 0 0 0 0 0 0 1 1 1 1 1 1 0 0 1 1 0 0 1 1 1 0 0 0 0 1 1 1 1 3 2 1 0 0 0 0 0 0 0
0 0 0 0 0 0 0 0 0 0 0 1 1 1 2 1 0 1 1 0 0 0 1 2 1 1 0 0 0 0 0 1 1 1 2 2 2 1 1 1 0 0 0
0 0 0 0 0 0 0 0 0 0 0 1 2 1 1 1 1 1 1 0 0 1 2 1 1 1 0 0 0 0 0 1 1 1 1 2 2 0 0 0 0 0 0
0 0 0 0 0 0 0 0 0 0 0 0 1 1 1 2 2 2 2 2 1 2 1 1 1 0 0 0 0 0 0 1 0 0 0 0 0 0 0 0 0 0 0
0 0 0 0 0 0 0 0 0 0 0 0 0 1 1 1 1 1 1 1 1 0 0 0 0 0 0 0 0 0 0 0 0 0 0 0 0 0 0 0 0 0 0
0 0 0 0 0 0 0 0 0 0 0 0 0 0 0 0 0 1 0 0 0 0 0 0 0 0 0 0 0 0 0 0 0 0 0 0 0 0 0 0 0 0 0
0 0 0 0 0 0 0 0 0 0 0 0 0 0 0 0 0 0 0 0 0 0 0 0 0 0 0 0 0 0 0 0 0 0 0 0 0 0 0 0 0 0 0
0 0 0 0 0 0 0 0 0 0 -0 0 0 0 0 0 0 0 0 0 0 0 0 0 0 0 0 0 0 0 0 0 0 0 0 0 0 0 0 0 0 0 0
0 0 0 0 0 0 0 0 0 -0 0 -0 0 0 0 0 0 0 0 0 0 0 0 0 0 0 0 0 0 0 0 0 0 0 0 0 0 0 0 0 0 0 0
0 0 0 0 0 -0 -0 -0 -0 0 0 0 0 0 0 0 0 0 0 0 0 0 0 0 0 0 0 0 0 0 0 0 0 0 0 0 0 0 0 0 0 0 0
0 0 0 0 -0 -0 0 0 0 -0 0 0 0 0 0 -0 -0 0 0 0 0 0 0 0 0 0 0 0 0 0 0 0 0 0 0 0 0 0 0 0 0 0 0
0 -0 0 -0 0 0 0 -0 -0 0 -0 0 0 0 0 0 0 0 0 0 0 0 0 0 0 0 0 0 0 0 0 0 0 0 0 0 0 0 0 0 0 0 0
-0 -0 -0 -0 0 0 0 -0 -0 0 0 0 0 0 0 0 0 0 0 0 0 0 0 0 0 0 0 0 0 0 0 0 0 0 0 0 -0 -0 -0 0 0 0 0
-0 -0 -0 -0 -0 -0 -0 -0 -0 -0 0 0 -0 0 0 0 0 0 0 0 0 0 0 0 0 0 0 0 0 0 0 0 0 -0 -0 -0 0 0 0 0 0 0 0
-0 -0 -0 -0 -0 -0 -0 0 -0 -0 0 0 0 0 0 0 0 0 0 0 0 0 0 0 0 0 0 0 0 0 0 -0 -0 0 0 0 0 0 0 0 0 0 0
-0 -0 -0 -0 -0 -0 -0 0 0 0 0 0 0 0 0 0 0 0 0 0 0 0 0 0 0 0 0 -0 -0 -0 -0 0 -0 -0 -0 0 0 0 0 0 0 0 -0
0 0 -0 -0 0 -0 -0 0 0 0 0 0 0 0 0 0 0 0 0 0 0 0 -0 -0 -0 0 0 0 0 -0 -0 -0 -0 0 -0 0 0 0 0 0 -0 -0 -0
-0 -0 0 0 0 0 0 0 0 0 0 0 -0 -0 -0 -0 -0 0 0 0 -0 0 0 0 0 -0 -0 -0 -0 0 0 -0 0 0 -0 0 0 -0 0 -0 0 -0 0
-0 -0 -0 -0 -0 0 0 0 0 0 0 -0 0 0 -0 -0 -0 -0 0 -0 0 -0 -0 0 -0 -0 -0 -0 -0 -0 -0 -0 -0 0 0 0 0 0 0 -0 -0 -0 -0
0 0 0 -0 0 0 0 -0 0 0 0 0 0 0 -0 -0 0 0 0 -0 -0 0 -0 0 0 -0 -0 -0 -0 -0 -0 -0 -0 0 0 0 0 0 -0 -0 -0 -0 -0
0 0 0 0 0 0 0 0 0 0 0 0 0 0 -0 0 0 0 0 -0 0 0 0 0 0 0 0 0 0 0 0 0 -0 -0 0 -0 -0 0 0 0 0 -0 -0
Wind_Speed_500mb
20 23 27 32 36 38 40 41 47 51 53 52 45 44 45 45 43 41 40 39 37 35 34 34 37 38 38 43 47 59 61 69 52 47 40 32 32 32 32 29 31 29 35
23 28 32 36 39 42 46 44 43 48 46 43 45 45 42 47 42 36 33 36 38 39 43 40 38 44 46 49 49 54 63 56 54 52 44 35 32 29 28 32 31 29 26
23 29 34 38 42 47 50 53 48 40 37 41 40 36 35 37 36 33 32 33 38 39 39 29 43 46 49 55 57 60 60 68 59 62 49 30 38 30 19 33 23 32 25
24 28 33 37 42 47 49 51 54 47 32 25 27 37 40 44 42 34 25 25 35 31 30 41 39 41 43 53 52 58 61 55 71 64 64 64 26 29 19 20 34 35 28
24 29 31 35 38 43 50 51 55 52 43 25 21 26 32 36 32 30 22 27 32 37 42 34 30 37 39 43 48 55 65 67 68 71 64 65 69 67 34 24 28 37 38
29 33 33 34 38 38 40 46 55 55 53 39 16 17 23 32 32 31 30 34 35 35 31 29 30 34 42 43 42 52 53 60 64 69 81 82 74 66 60 44 39 32 30
35 39 41 39 37 37 39 39 42 52 54 47 26 11 17 26 28 22 24 29 33 34 31 31 32 36 40 44 47 46 49 54 61 63 73 65 63 61 48 46 43 35 26
42 45 45 38 35 34 35 38 36 38 47 50 37 22 11 14 14 12 15 24 28 32 34 36 40 42 46 49 53 50 55 54 58 65 67 69 63 63 63 62 59 35 31
46 48 44 32 29 29 30 33 30 30 37 50 46 26 22 18 11 9 10 15 19 25 32 37 45 56 59 55 56 55 50 51 52 51 57 69 78 75 72 61 62 49 35
36 35 34 28 30 23 30 25 28 22 27 47 49 38 27 29 23 15 18 24 33 39 43 43 51 55 57 55 45 42 45 47 45 47 48 53 49 50 48 52 51 46 42
26 25 27 27 27 23 26 35 21 28 26 36 48 39 35 31 28 29 32 36 35 33 32 37 42 41 39 36 33 35 43 47 49 46 53 55 53 48 47 48 49 45 31
19 23 25 27 31 31 31 32 32 26 30 29 48 42 40 39 38 37 38 39 39 35 32 35 36 36 33 34 32 32 36 37 40 42 44 45 38 43 41 39 33 22 20
18 25 28 32 34 35 36 35 31 31 28 39 49 43 38 38 37 35 36 48 40 33 32 34 37 37 32 29 26 26 28 30 30 31 26 26 25 30 30 33 30 28 28
22 28 34 35 39 40 39 37 35 29 29 27 42 36 37 37 36 35 43 44 37 32 30 33 31 28 25 20 18 11 7 8 20 26 29 29 26 25 28 30 31 29 28
35 39 42 42 51 56 50 43 36 32 27 27 30 28 37 35 34 32 34 36 32 29 28 27 24 21 18 13 11 23 33 35 38 39 41 40 41 20 25 28 35 33 33
50 52 47 55 64 55 48 35 35 39 34 26 26 27 31 30 29 25 29 31 24 21 20 16 15 19 26 19 24 34 39 39 35 39 44 37 27 21 19 24 35 34 29
45 54 58 65 60 45 41 40 41 36 34 27 23 23 25 28 21 20 22 18 12 11 12 19 25 38 42 40 40 37 38 36 34 32 27 26 29 29 32 32 32 34 33
56 62 62 58 47 48 45 41 34 30 24 22 19 20 18 23 16 13 8 3 8 19 26 28 35 38 35 32 32 35 39 40 37 34 32 35 32 25 29 27 30 26 24
62 55 51 56 51 47 38 32 27 23 17 16 16 15 18 14 13 5 4 16 21 30 34 35 33 34 37 35 40 45 46 43 33 27 30 29 36 40 36 26 28 29 28
53 53 59 56 48 42 35 27 22 18 15 11 11 15 11 11 8 9 20 28 30 35 36 40 44 46 43 35 41 38 34 32 40 29 28 35 35 32 32 25 29 30 22
58 70 47 55 50 42 32 25 20 18 11 12 19 9 7 12 16 24 33 34 39 43 44 44 46 48 45 44 40 33 30 26 31 33 36 38 32 33 36 37 35 33 25
60 51 61 48 47 34 28 25 18 13 13 22 8 9 19 25 30 36 41 40 42 45 50 53 47 49 46 41 33 35 34 32 30 30 35 41 42 40 38 39 39 33 32
64 55 36 45 25 28 20 19 18 19 23 14 15 24 30 39 43 44 48 56 52 49 51 45 39 42 44 51 48 45 43 44 43 48 47 44 46 45 38 37 34 35 35
47 43 45 41 28 11 15 23 25 26 23 21 29 39 49 52 51 54 53 50 42 45 45 41 39 38 35 32 32 33 39 45 43 48 47 48 46 41 37 36 37 39 36
47 38 27 19 14 21 29 32 31 28 24 36 49 57 58 60 61 52 45 46 47 44 39 39 42 42 54 53 43 40 38 39 42 39 39 40 40 38 38 37 36 38 39
39 29 18 19 27 38 39 40 36 27 42 53 65 66 66 69 66 56 65 56 56 52 54 55 54 55 51 44 42 42 47 42 42 46 51 48 42 40 37 35 34 35 39
Wind_Direction_500mb
356 358 1 359 356 351 340 320 301 294 287 267 249 244 241 237 234 240 244 242 248 251 255 263 267 267 265 266 265 258 249 239 244 240 230 235 225 222 222 230 235 221 226
352 356 358 359 360 357 354 344 327 304 289 265 244 237 242 237 238 238 243 247 255 261 259 264 267 267 266 264 260 256 248 243 233 236 233 217 225 228 224 231 230 226 221
350 353 355 356 357 358 357 354 346 330 300 273 239 231 229 224 227 230 240 253 254 248 265 283 291 278 267 264 259 264 253 246 235 234 227 226 236 214 218 223 206 225 206
339 339 341 346 350 355 356 358 358 352 333 277 234 225 231 231 232 232 235 245 253 249 261 282 282 280 281 267 263 251 253 254 243 238 233 225 240 202 189 213 220 219 218
347 343 337 336 338 345 352 357 1 2 356 317 236 232 234 229 217 209 225 265 250 258 264 269 273 282 292 279 268 265 258 258 249 236 234 232 222 223 221 195 201 202 213
337 336 332 328 332 332 344 351 359 1 7 360 324 246 231 225 211 208 245 264 248 264 274 271 278 287 291 296 290 273 262 261 256 250 233 233 236 238 225 212 209 194 193
326 328 328 326 324 330 338 344 350 357 5 7 0 308 244 237 239 239 248 245 256 268 275 276 291 288 290 293 290 282 275 262 262 259 248 239 236 236 233 220 189 181 182
325 322 321 322 323 324 327 340 352 355 360 4 7 5 325 276 259 280 250 260 267 274 277 291 293 297 298 296 296 286 277 267 263 262 254 251 234 227 229 211 194 180 184
324 323 316 313 324 337 334 341 341 349 11 358 358 357 9 8 3 332 298 280 289 291 300 302 300 300 295 298 296 295 286 270 267 265 258 255 248 236 230 221 220 223 187
327 337 337 322 322 324 357 328 353 336 11 2 353 352 354 360 359 352 325 317 315 313 314 313 305 299 297 297 295 293 289 274 266 265 255 252 232 224 219 219 218 212 216
313 323 336 336 339 344 337 353 324 336 331 341 340 347 355 353 354 353 343 328 322 324 325 321 314 307 302 303 299 291 294 277 260 251 235 225 221 218 200 195 195 200 193
312 320 320 324 328 336 339 332 330 354 304 323 325 336 344 345 352 353 343 335 331 324 320 314 317 316 312 309 300 288 276 266 252 240 228 222 204 194 191 183 174 151 139
307 312 318 319 320 321 322 326 321 308 319 298 312 321 332 340 347 346 344 338 336 325 321 317 317 321 320 322 316 307 288 258 239 219 200 173 166 153 148 132 120 140 151
320 314 312 318 320 317 316 316 320 312 295 293 300 315 324 339 338 339 336 339 334 326 321 317 322 327 326 331 331 329 302 202 144 133 129 115 101 101 107 130 135 142 148
307 316 317 317 317 313 304 301 302 308 305 306 301 318 323 339 333 331 333 333 331 323 322 325 333 348 354 11 91 113 118 109 100 97 96 94 93 115 122 129 128 135 126
306 311 313 314 316 313 306 306 296 297 298 300 306 323 321 329 334 333 328 336 324 325 335 347 12 54 75 104 121 118 113 112 98 100 99 99 106 113 113 120 124 124 115
310 306 311 313 311 310 305 302 297 296 290 287 299 316 321 318 330 324 327 323 333 356 41 78 90 99 106 111 112 112 108 106 110 104 107 113 101 90 105 105 110 112 113
315 309 306 307 304 303 301 302 301 297 288 278 285 306 309 321 310 301 312 343 87 98 98 102 105 108 106 109 104 102 102 96 98 91 96 108 117 120 106 109 98 93 92
307 305 305 302 300 302 300 297 298 295 292 268 265 286 302 297 272 263 142 117 112 107 106 104 104 100 91 98 106 103 92 92 87 87 93 103 113 109 105 104 98 89 77
306 304 303 305 300 301 299 295 291 284 272 268 248 272 283 260 206 154 123 120 113 108 106 101 93 96 95 93 93 97 91 84 92 98 105 109 107 111 103 102 100 88 83
300 303 297 297 295 299 288 289 275 274 249 250 235 265 225 171 144 123 123 115 109 105 98 93 87 84 86 92 96 91 79 76 90 98 104 106 99 94 92 93 88 92 84
298 296 297 289 294 287 274 280 251 231 187 213 216 171 147 137 125 122 114 110 106 92 86 88 89 86 84 85 88 97 90 91 94 93 99 96 92 86 86 86 82 78 75
297 294 285 295 276 260 263 214 200 176 179 195 162 141 134 127 122 117 108 97 90 90 89 83 84 83 80 80 79 83 92 95 94 93 91 89 85 76 69 81 71 72 70
296 292 291 283 279 246 186 175 171 171 183 167 143 135 130 127 120 109 96 91 90 91 94 91 84 82 82 76 72 80 77 82 85 83 82 78 74 77 74 70 67 65 62
301 294 282 262 222 173 166 162 164 170 167 148 137 134 126 122 112 106 97 96 101 96 92 88 85 81 78 76 84 86 81 78 81 80 76 75 73 76 70 66 65 62 61
300 294 266 216 178 166 164 161 166 167 156 137 140 130 125 119 109 100 100 98 100 97 97 95 89 83 80 82 82 86 86 81 82 75 70 67 65 65 63 63 65 61 61
Wind_Speed_850mb
20 23 27 32 36 38 40 41 47 51 53 52 45 44 45 45 43 41 40 39 37 35 34 34 37 38 38 43 47 59 61 69 52 47 40 32 32 32 32 29 31 29 35
23 28 32 36 39 42 46 44 43 48 46 43 45 45 42 47 42 36 33 36 38 39 43 40 38 44 46 49 49 54 63 56 54 52 44 35 32 29 28 32 31 29 26
23 29 34 38 42 47 50 53 48 40 37 41 40 36 35 37 36 33 32 33 38 39 39 29 43 46 49 55 57 60 60 68 59 62 49 30 38 30 19 33 23 32 25
24 28 33 37 42 47 49 51 54 47 32 25 27 37 40 44 42 34 25 25 35 31 30 41 39 41 43 53 52 58 61 55 71 64 64 64 26 29 19 20 34 35 28
24 29 31 35 38 43 50 51 55 52 43 25 21 26 32 36 32 30 22 27 32 37 42 34 30 37 39 43 48 55 65 67 68 71 64 65 69 67 34 24 28 37 38
29 33 33 34 38 38 40 46 55 55 53 39 16 17 23 32 32 31 30 34 35 35 31 29 30 34 42 43 42 52 53 60 64 69 81 82 74 66 60 44 39 32 30
35 39 41 39 37 37 39 39 42 52 54 47 26 11 17 26 28 22 24 29 33 34 31 31 32 36 40 44 47 46 49 54 61 63 73 65 63 61 48 46 43 35 26
42 45 45 38 35 34 35 38 36 38 47 50 37 22 11 14 14 12 15 24 28 32 34 36 40 42 46 49 53 50 55 54 58 65 67 69 63 63 63 62 59 35 31
46 48 44 32 29 29 30 33 30 30 37 50 46 26 22 18 11 9 10 15 19 25 32 37 45 56 59 55 56 55 50 51 52 51 57 69 78 75 72 61 62 49 35
36 35 34 28 30 23 30 25 28 22 27 47 49 38 27 29 23 15 18 24 33 39 43 43 51 55 57 55 45 42 45 47 45 47 48 53 49 50 48 52 51 46 42
26 25 27 27 27 23 26 35 21 28 26 36 48 39 35 31 28 29 32 36 35 33 32 37 42 41 39 36 33 35 43 47 49 46 53 55 53 48 47 48 49 45 31
19 23 25 27 31 31 31 32 32 26 30 29 48 42 40 39 38 37 38 39 39 35 32 35 36 36 33 34 32 32 36 37 40 42 44 45 38 43 41 39 33 22 20
18 25 28 32 34 35 36 35 31 31 28 39 49 43 38 38 37 35 36 48 40 33 32 34 37 37 32 29 26 26 28 30 30 31 26 26 25 30 30 33 30 28 28
22 28 34 35 39 40 39 37 35 29 29 27 42 36 37 37 36 35 43 44 37 32 30 33 31 28 25 20 18 11 7 8 20 26 29 29 26 25 28 30 31 29 28
35 39 42 42 51 56 50 43 36 32 27 27 30 28 37 35 34 32 34 36 32 29 28 27 24 21 18 13 11 23 33 35 38 39 41 40 41 20 25 28 35 33 33
50 52 47 55 64 55 48 35 35 39 34 26 26 27 31 30 29 25 29 31 24 21 20 16 15 19 26 19 24 34 39 39 35 39 44 37 27 21 19 24 35 34 29
45 54 58 65 60 45 41 40 41 36 34 27 23 23 25 28 21 20 22 18 12 11 12 19 25 38 42 40 40 37 38 36 34 32 27 26 29 29 32 32 32 34 33
56 62 62 58 47 48 45 41 34 30 24 22 19 20 18 23 16 13 8 3 8 19 26 28 35 38 35 32 32 35 39 40 37 34 32 35 32 25 29 27 30 26 24
62 55 51 56 51 47 38 32 27 23 17 16 16 15 18 14 13 5 4 16 21 30 34 35 33 34 37 35 40 45 46 43 33 27 30 29 36 40 36 26 28 29 28
53 53 59 56 48 42 35 27 22 18 15 11 11 15 11 11 8 9 20 28 30 35 36 40 44 46 43 35 41 38 34 32 40 29 28 35 35 32 32 25 29 30 22
58 70 47 55 50 42 32 25 20 18 11 12 19 9 7 12 16 24 33 34 39 43 44 44 46 48 45 44 40 33 30 26 31 33 36 38 32 33 36 37 35 33 25
60 51 61 48 47 34 28 25 18 13 13 22 8 9 19 25 30 36 41 40 42 45 50 53 47 49 46 41 33 35 34 32 30 30 35 41 42 40 38 39 39 33 32
64 55 36 45 25 28 20 19 18 19 23 14 15 24 30 39 43 44 48 56 52 49 51 45 39 42 44 51 48 45 43 44 43 48 47 44 46 45 38 37 34 35 35
47 43 45 41 28 11 15 23 25 26 23 21 29 39 49 52 51 54 53 50 42 45 45 41 39 38 35 32 32 33 39 45 43 48 47 48 46 41 37 36 37 39 36
47 38 27 19 14 21 29 32 31 28 24 36 49 57 58 60 61 52 45 46 47 44 39 39 42 42 54 53 43 40 38 39 42 39 39 40 40 38 38 37 36 38 39
39 29 18 19 27 38 39 40 36 27 42 53 65 66 66 69 66 56 65 56 56 52 54 55 54 55 51 44 42 42 47 42 42 46 51 48 42 40 37 35 34 35 39
Wind_Direction_850mb
356 358 1 359 356 351 340 320 301 294 287 267 249 244 241 237 234 240 244 242 248 251 255 263 267 267 265 266 265 258 249 239 244 240 230 235 225 222 222 230 235 221 226
352 356 358 359 360 357 354 344 327 304 289 265 244 237 242 237 238 238 243 247 255 261 259 264 267 267 266 264 260 256 248 243 233 236 233 217 225 228 224 231 230 226 221
350 353 355 356 357 358 357 354 346 330 300 273 239 231 229 224 227 230 240 253 254 248 265 283 291 278 267 264 259 264 253 246 235 234 227 226 236 214 218 223 206 225 206
339 339 341 346 350 355 356 358 358 352 333 277 234 225 231 231 232 232 235 245 253 249 261 282 282 280 281 267 263 251 253 254 243 238 233 225 240 202 189 213 220 219 218
347 343 337 336 338 345 352 357 1 2 356 317 236 232 234 229 217 209 225 265 250 258 264 269 273 282 292 279 268 265 258 258 249 236 234 232 222 223 221 195 201 202 213
337 336 332 328 332 332 344 351 359 1 7 360 324 246 231 225 211 208 245 264 248 264 274 271 278 287 291 296 290 273 262 261 256 250 233 233 236 238 225 212 209 194 193
326 328 328 326 324 330 338 344 350 357 5 7 0 308 244 237 239 239 248 245 256 268 275 276 291 288 290 293 290 282 275 262 262 259 248 239 236 236 233 220 189 181 182
325 322 321 322 323 324 327 340 352 355 360 4 7 5 325 276 259 280 250 260 267 274 277 291 293 297 298 296 296 286 277 267 263 262 254 251 234 227 229 211 194 180 184
324 323 316 313 324 337 334 341 341 349 11 358 358 357 9 8 3 332 298 280 289 291 300 302 300 300 295 298 296 295 286 270 267 265 258 255 248 236 230 221 220 223 187
327 337 337 322 322 324 357 328 353 336 11 2 353 352 354 360 359 352 325 317 315 313 314 313 305 299 297 297 295 293 289 274 266 265 255 252 232 224 219 219 218 212 216
313 323 336 336 339 344 337 353 324 336 331 341 340 347 355 353 354 353 343 328 322 324 325 321 314 307 302 303 299 291 294 277 260 251 235 225 221 218 200 195 195 200 193
312 320 320 324 328 336 339 332 330 354 304 323 325 336 344 345 352 353 343 335 331 324 320 314 317 316 312 309 300 288 276 266 252 240 228 222 204 194 191 183 174 151 139
307 312 318 319 320 321 322 326 321 308 319 298 312 321 332 340 347 346 344 338 336 325 321 317 317 321 320 322 316 307 288 258 239 219 200 173 166 153 148 132 120 140 151
320 314 312 318 320 317 316 316 320 312 295 293 300 315 324 339 338 339 336 339 334 326 321 317 322 327 326 331 331 329 302 202 144 133 129 115 101 101 107 130 135 142 148
307 316 317 317 317 313 304 301 302 308 305 306 301 318 323 339 333 331 333 333 331 323 322 325 333 348 354 11 91 113 118 109 100 97 96 94 93 115 122 129 128 135 126
306 311 313 314 316 313 306 306 296 297 298 300 306 323 321 329 334 333 328 336 324 325 335 347 12 54 75 104 121 118 113 112 98 100 99 99 106 113 113 120 124 124 115
310 306 311 313 311 310 305 302 297 296 290 287 299 316 321 318 330 324 327 323 333 356 41 78 90 99 106 111 112 112 108 106 110 104 107 113 101 90 105 105 110 112 113
315 309 306 307 304 303 301 302 301 297 288 278 285 306 309 321 310 301 312 343 87 98 98 102 105 108 106 109 104 102 102 96 98 91 96 108 117 120 106 109 98 93 92
307 305 305 302 300 302 300 297 298 295 292 268 265 286 302 297 272 263 142 117 112 107 106 104 104 100 91 98 106 103 92 92 87 87 93 103 113 109 105 104 98 89 77
306 304 303 305 300 301 299 295 291 284 272 268 248 272 283 260 206 154 123 120 113 108 106 101 93 96 95 93 93 97 91 84 92 98 105 109 107 111 103 102 100 88 83
300 303 297 297 295 299 288 289 275 274 249 250 235 265 225 171 144 123 123 115 109 105 98 93 87 84 86 92 96 91 79 76 90 98 104 106 99 94 92 93 88 92 84
298 296 297 289 294 287 274 280 251 231 187 213 216 171 147 137 125 122 114 110 106 92 86 88 89 86 84 85 88 97 90 91 94 93 99 96 92 86 86 86 82 78 75
297 294 285 295 276 260 263 214 200 176 179 195 162 141 134 127 122 117 108 97 90 90 89 83 84 83 80 80 79 83 92 95 94 93 91 89 85 76 69 81 71 72 70
296 292 291 283 279 246 186 175 171 171 183 167 143 135 130 127 120 109 96 91 90 91 94 91 84 82 82 76 72 80 77 82 85 83 82 78 74 77 74 70 67 65 62
301 294 282 262 222 173 166 162 164 170 167 148 137 134 126 122 112 106 97 96 101 96 92 88 85 81 78 76 84 86 81 78 81 80 76 75 73 76 70 66 65 62 61
300 294 266 216 178 166 164 161 166 167 156 137 140 130 125 119 109 100 100 98 100 97 97 95 89 83 80 82 82 86 86 81 82 75 70 67 65 65 63 63 65 61 61